Find OPS 7613 P/L 6

NORAD ID: 4295 Int'l Des: 1969-082 Owner: NRO/NRL Country: US operational
LEOCIRCULAR

Live-Position

3D-Globus wird geladen...

Über OPS 7613 P/L 6

Beschreibung wird geladen...

Nächste Überflüge

Passes for default location (London). Set your location on the main map for personalized predictions.

Höhenverlauf

Loading altitude history...

Zweizeiliger Elementsatz

1 04295U 69082G 26107.08232040 -.00000013 00000-0 29227-4 0 9991
2 04295 70.0120 239.9253 0022596 231.3310 128.5774 13.95588871876967
Epoch: 17. Apr. 2026 • Age: 13 hours

Aktueller Status

Höhe 911.1 km
Geschwindigkeit 7.40 km/s
Subsatellitenpunkt 32.07°N, 20.77°W
Typ other

Most Searched